Vertical_Velocity
1 -0 -3 2 -3 -4 -4 -3 -1 -4 1 2 6 8 7 1 -2 0 3 -4 -1 2 -0 -3 -4 -2 4 0 -1 -1 -0 -1 1 1 1 -2 -1 2 -2 -2 -1 -3 0 -1 1 0 -0
5 5 -1 -1 -1 1 1 -2 -3 -3 -5 -0 -2 -1 -2 0 -1 1 -1 -2 -0 -0 3 -0 -1 -4 -2 1 0 0 -1 0 -0 -0 1 0 0 4 -4 -0 -3 1 -1 1 1 -0 -1
-1 0 3 1 -1 1 -0 -0 0 -5 1 -4 -0 1 -1 1 1 -4 -5 6 -1 -0 2 1 1 -2 -2 -3 1 1 -0 -0 1 0 0 -1 1 6 1 -0 2 -1 -5 -0 -0 -1 -1
-2 -1 2 -1 4 -2 2 1 -0 -4 -9 1 -1 2 -2 -2 -0 2 -4 -3 1 2 -0 4 2 -1 -2 -2 -3 1 2 -0 0 -0 3 0 -0 -5 -1 3 -2 -2 -5 -2 -2 1 -0
0 1 -2 1 -1 -1 -0 -1 1 5 -3 -6 -4 -6 -0 3 -2 -1 -0 -2 -10 3 3 -1 4 1 -1 0 -0 -2 -0 1 -0 1 1 1 1 -2 2 -4 -4 -1 -2 0 -0 -1 -1
0 0 -0 2 2 -2 -1 2 2 1 2 1 -8 -5 -2 -1 2 2 5 -1 -3 -2 1 4 2 5 2 -2 -1 -0 -1 2 -0 2 -0 -1 -1 -3 -3 -4 -8 -3 1 1 -2 -4 2
-1 -1 1 -1 2 1 -1 3 1 4 4 -2 3 -7 -3 -5 1 3 -2 8 6 0 0 -0 1 4 2 1 -0 -0 -1 0 1 3 -2 2 -8 -3 -6 -2 -1 -2 -1 -1 0 0 -3
-1 -1 1 -0 2 3 0 1 -0 1 2 2 5 -3 -8 -9 -2 -0 7 -4 4 10 -0 -4 0 0 -1 -1 -1 2 0 0 1 -1 1 -9 -3 -2 -1 1 -0 0 -1 0 0 0 -2
0 1 -3 -1 2 3 2 -0 -4 -2 8 -1 3 3 -0 -4 0 2 -6 4 6 0 1 0 -1 -1 -4 -0 0 -2 1 1 -1 0 -0 -5 -3 0 -2 1 -0 0 -2 -0 -3 1 -0
-1 -5 -4 -3 -0 1 -1 2 2 2 7 3 -3 -0 1 1 -0 -3 -13 3 -5 8 -5 -4 1 4 3 -2 -0 2 -0 -2 2 -5 -1 -1 -1 -0 -0 -0 -4 -0 -0 -1 -1 -3 -5
-3 -1 6 5 -0 -4 -6 -3 4 2 4 4 0 -2 -10 18 -3 -8 5 -10 4 -8 -5 -1 4 2 2 -1 -1 -1 3 -0 -1 0 -9 -11 0 0 -0 -1 -1 -4 -1 -1 -1 -1 -4
44 20 2 -4 2 2 3 -3 3 -1 2 3 3 3 1 -0 4 5 -1 3 -5 -14 -17 1 0 -0 0 1 2 1 1 -0 2 -2 -3 1 1 -1 -1 1 1 -1 -4 -4 -2 -2 -3
7 1 5 3 -2 -4 5 6 4 2 -1 2 -1 3 -1 3 -6 0 2 2 -12 -4 -6 -1 -3 1 -1 1 3 0 0 2 -6 -6 -1 -0 -0 -1 -0 -5 -5 -5 -5 -5 -8 -7 -9
7 -2 18 56 26 8 -1 -3 1 4 5 1 1 4 1 -7 5 9 3 -7 1 -8 -2 1 -1 1 -2 -3 -0 1 1 -1 -0 -1 -1 -4 -0 -1 -0 -3 -9 -2 -5 -10 -8 -4 -5
-5 3 -0 7 -1 -0 -3 5 3 8 2 4 5 5 3 -6 -1 6 5 1 -12 -3 -6 -3 2 -1 0 1 -6 -1 -1 -2 -4 -3 -9 -3 1 0 -1 -0 -4 -6 -3 -5 -5 -1 -5
-1 -5 9 -4 7 92 1 -3 9 4 3 9 -3 14 -0 8 -1 7 -3 -8 -2 -2 -2 0 -4 -6 -1 -0 -1 2 -0 -8 -2 -3 -1 -3 -5 0 0 -0 -2 -7 -2 -12 -5 -5 -2
-2 9 -1 -16 -5 0 32 -15 9 1 7 11 9 8 -6 5 8 10 -2 -6 -0 -0 -4 -5 -2 -1 -3 -5 -3 -1 -5 -6 0 2 -1 -2 -12 -3 -1 -1 -6 -1 -0 -3 -7 -4 -6
3 2 -1 -4 -30 12 25 94 4 -0 21 11 -2 5 6 5 9 -0 -0 -4 0 0 1 0 -1 -1 -4 -1 -0 1 -4 -3 1 -5 -2 -2 -4 -2 -5 -3 -1 -1 -2 -3 -7 -8 -2
-2 -6 0 3 -5 0 -14 12 6 -1 16 1 -3 -1 22 17 1 1 0 -4 2 2 -0 1 -0 -1 -1 -2 -6 -1 -0 -0 2 -1 -6 -6 -4 -3 -8 -8 -3 0 -1 -1 -1 -3 -4
-9 -3 -4 -0 8 2 7 -16 71 4 4 -2 -0 -1 6 14 2 -4 0 -3 2 2 0 -0 -2 -2 -2 0 -0 -2 1 -0 1 -0 1 -2 -0 -8 -13 -14 -7 1 1 0 -3 -1 -3
2 -3 -3 -11 6 2 -4 -2 -30 63 6 4 7 -1 -13 -3 7 0 2 -2 1 1 -0 3 3 -1 -4 -1 0 0 0 -1 -2 1 -0 -6 -2 -1 -0 -0 -0 -2 -1 0 2 -8 -3
3 -6 -2 -5 -3 -0 14 4 -7 26 19 9 -11 -12 12 0 5 6 1 -4 -3 2 -8 0 -2 -1 -0 -3 -5 -2 -3 -2 -5 0 -1 -2 -2 -1 -1 -0 -0 0 0 0 -0 -0 0
-2 -6 -5 0 -6 0 2 23 -2 19 16 5 0 9 -20 -3 3 8 -14 -3 -7 -1 2 -3 -4 -4 -0 -9 4 1 -6 -0 -4 -5 -0 -2 -2 -2 -3 -0 -1 -4 -7 -2 -1 -0 -6
4 -5 -2 2 -5 -4 -0 3 5 -3 67 -7 -14 0 -2 -0 -2 -11 -0 -1 -1 -4 -5 -0 2 -3 -8 6 -1 5 0 0 2 0 -3 -2 -1 -2 -1 -2 -4 -20 -0 -6 -7 -2 0
-3 -3 -3 -3 -10 3 8 11 15 22 17 32 -5 -9 -5 0 -6 7 5 -3 4 2 1 -5 -0 -5 4 -1 -1 1 1 -2 -3 -1 0 -2 -2 -2 -4 -1 -14 -6 -1 -8 -9 -15 -4
-2 3 -1 1 -1 -10 8 6 6 -2 -2 11 -2 10 -6 -6 -12 -6 -2 -3 -5 -1 0 1 8 3 2 -2 -1 -2 -3 -3 3 4 1 1 -1 -6 1 -1 -6 -7 -2 2 -3 -18 -1
8 3 2 1 3 -7 1 -2 8 22 11 15 14 -2 12 -1 2 -3 -7 -15 -1 2 -2 -0 3 4 6 -0 -0 -2 -2 -7 -3 -2 0 2 2 -4 -0 -1 -9 -5 -1 0 -5 -21 1
-2 2 1 -1 -0 -6 -5 -4 11 10 5 10 -5 3 -19 -2 14 7 -16 -11 6 2 -3 -5 -1 3 1 1 -1 -3 -1 -5 -1 -5 -6 -7 -5 -2 4 4 -11 -0 0 -2 -2 1 2
-16 7 3 -6 -3 -0 3 1 3 17 2 18 0 0 17 11 -0 6 7 3 -2 14 -4 12 -16 -2 -5 0 4 1 1 1 -3 -5 1 -1 -12 -13 -12 -11 3 4 1 4 5 1 1
Height
1498 1499 1499 1501 1502 1503 1504 1504 1504 1505 1506 1507 1508 1510 1509 1509 1509 1509 1509 1508 1508 1508 1509 1511 1512 1513 1513 1514 1514 1513 1513 1514 1516 1517 1519 1521 1523 1524 1529 1531 1534 1539 1544 1544 1545 1546 1547
1496 1496 1496 1498 1499 1500 1501 1501 1502 1503 1505 1506 1506 1508 1509 1509 1509 1509 1508 1508 1507 1507 1508 1510 1512 1512 1514 1515 1513 1512 1513 1515 1516 1518 1519 1521 1522 1523 1528 1532 1534 1538 1542 1545 1546 1547 1548
1492 1493 1493 1494 1496 1497 1498 1498 1500 1501 1503 1504 1505 1504 1505 1506 1507 1507 1508 1508 1506 1506 1508 1510 1511 1511 1513 1514 1512 1512 1513 1514 1516 1518 1519 1520 1521 1523 1527 1532 1538 1539 1546 1547 1548 1548 1550
1488 1488 1489 1490 1491 1493 1495 1496 1496 1498 1500 1502 1503 1503 1503 1503 1505 1505 1505 1508 1506 1507 1508 1511 1511 1511 1511 1511 1512 1512 1513 1514 1515 1517 1519 1521 1522 1524 1527 1533 1539 1540 1545 1555 1548 1549 1550
1483 1483 1484 1485 1485 1487 1490 1492 1493 1494 1495 1496 1498 1499 1500 1501 1502 1503 1505 1504 1506 1508 1509 1511 1512 1512 1511 1509 1510 1512 1513 1514 1516 1517 1518 1520 1523 1527 1531 1536 1550 1545 1561 1547 1550 1547 1549
1479 1479 1480 1480 1481 1482 1485 1487 1489 1490 1492 1492 1494 1495 1496 1500 1500 1502 1502 1502 1504 1507 1511 1511 1512 1514 1508 1507 1509 1510 1513 1514 1515 1517 1520 1521 1523 1531 1536 1543 1556 1548 1547 1542 1544 1546 1548
1474 1475 1475 1476 1477 1478 1480 1482 1484 1487 1488 1489 1491 1491 1493 1496 1501 1501 1504 1504 1507 1509 1507 1508 1507 1508 1505 1506 1508 1510 1513 1515 1515 1518 1521 1521 1532 1537 1526 1527 1524 1529 1531 1536 1541 1542 1544
1469 1469 1471 1472 1473 1474 1475 1478 1479 1483 1485 1487 1487 1487 1489 1492 1497 1501 1501 1502 1502 1504 1503 1503 1505 1505 1506 1506 1507 1509 1512 1515 1516 1519 1519 1529 1535 1522 1521 1525 1524 1524 1530 1539 1543 1542 1545
1462 1463 1464 1466 1468 1469 1470 1472 1475 1479 1481 1483 1486 1486 1486 1489 1495 1499 1499 1500 1501 1502 1503 1500 1498 1502 1504 1508 1506 1507 1510 1512 1514 1517 1519 1527 1522 1521 1521 1525 1528 1530 1532 1539 1535 1544 1545
1455 1456 1457 1460 1462 1464 1466 1470 1472 1473 1476 1478 1481 1485 1485 1487 1494 1495 1495 1499 1500 1504 1508 1499 1499 1498 1501 1504 1506 1506 1508 1511 1513 1516 1518 1522 1523 1522 1523 1526 1531 1538 1531 1533 1540 1547 1556
1447 1448 1449 1451 1453 1456 1460 1464 1468 1469 1472 1475 1476 1479 1485 1486 1483 1489 1495 1496 1501 1505 1519 1496 1498 1497 1498 1502 1504 1506 1507 1509 1513 1514 1517 1523 1524 1523 1525 1528 1530 1532 1532 1534 1536 1544 1552
1440 1439 1441 1443 1445 1447 1451 1454 1459 1464 1468 1470 1474 1476 1479 1483 1484 1486 1491 1497 1501 1509 1518 1493 1494 1496 1498 1500 1501 1504 1507 1509 1511 1514 1519 1526 1527 1527 1530 1533 1533 1533 1539 1544 1550 1562 1577
1428 1430 1433 1434 1437 1440 1443 1447 1452 1456 1462 1465 1470 1472 1476 1480 1481 1485 1489 1496 1509 1513 1479 1490 1492 1495 1495 1498 1500 1501 1504 1510 1512 1523 1524 1527 1531 1531 1530 1535 1535 1539 1545 1581 1578 1591 1557
1419 1422 1425 1422 1425 1430 1435 1440 1445 1450 1455 1459 1465 1470 1472 1478 1479 1483 1487 1495 1501 1475 1474 1480 1484 1492 1496 1495 1498 1499 1503 1511 1504 1507 1526 1524 1531 1532 1530 1533 1532 1545 1541 1548 1554 1576 1548
1411 1411 1415 1413 1417 1420 1427 1431 1438 1443 1448 1454 1461 1463 1467 1472 1478 1479 1484 1497 1474 1467 1465 1473 1484 1489 1493 1492 1495 1496 1501 1504 1497 1498 1504 1519 1521 1532 1533 1533 1533 1538 1544 1533 1549 1573 1560
1407 1404 1403 1404 1408 1410 1411 1422 1429 1436 1442 1449 1452 1457 1459 1465 1473 1479 1482 1464 1462 1455 1459 1465 1467 1476 1489 1490 1494 1496 1498 1486 1485 1486 1491 1500 1526 1533 1534 1534 1534 1535 1535 1539 1554 1551 1545
1402 1398 1394 1396 1395 1396 1401 1408 1418 1426 1435 1441 1449 1452 1452 1460 1469 1474 1469 1465 1455 1451 1452 1458 1458 1470 1471 1479 1483 1489 1486 1478 1477 1483 1487 1497 1509 1539 1533 1534 1532 1536 1536 1542 1535 1536 1540
1395 1392 1389 1388 1386 1386 1386 1394 1405 1416 1424 1432 1439 1444 1446 1453 1459 1459 1453 1454 1449 1449 1451 1452 1453 1454 1461 1468 1477 1480 1477 1471 1470 1476 1487 1491 1515 1534 1529 1533 1531 1532 1528 1527 1524 1539 1547
1388 1386 1384 1383 1380 1378 1376 1378 1389 1403 1410 1416 1427 1437 1439 1444 1441 1446 1448 1449 1449 1447 1448 1451 1453 1451 1452 1462 1474 1469 1471 1472 1470 1473 1478 1484 1510 1537 1530 1533 1533 1532 1526 1523 1527 1532 1529
1382 1379 1377 1376 1374 1372 1369 1371 1376 1388 1400 1409 1415 1427 1434 1433 1432 1435 1442 1445 1445 1444 1445 1446 1448 1450 1454 1457 1459 1469 1472 1473 1473 1474 1476 1477 1495 1492 1486 1495 1506 1521 1515 1512 1509 1526 1520
1376 1373 1370 1368 1366 1366 1366 1366 1371 1376 1385 1398 1395 1403 1408 1415 1418 1426 1433 1435 1439 1441 1441 1442 1446 1446 1451 1464 1460 1464 1472 1476 1475 1475 1477 1480 1486 1488 1488 1489 1493 1499 1502 1502 1500 1491 1490
1369 1367 1364 1361 1360 1359 1358 1358 1359 1364 1372 1380 1379 1388 1403 1405 1413 1422 1426 1423 1427 1433 1435 1438 1442 1442 1446 1452 1453 1465 1469 1473 1470 1476 1479 1482 1488 1493 1494 1494 1492 1492 1493 1496 1494 1499 1497
1362 1359 1357 1355 1353 1351 1349 1348 1350 1353 1358 1362 1369 1378 1386 1398 1406 1416 1409 1416 1417 1426 1430 1431 1434 1439 1450 1444 1450 1456 1461 1464 1466 1471 1477 1481 1486 1493 1497 1502 1497 1492 1482 1491 1495 1492 1482
1355 1352 1350 1347 1345 1345 1344 1342 1342 1345 1349 1352 1360 1370 1380 1387 1394 1397 1404 1414 1415 1417 1426 1430 1434 1436 1443 1448 1456 1460 1462 1464 1465 1467 1469 1483 1484 1491 1500 1500 1497 1466 1463 1460 1464 1469 1471
1349 1346 1343 1340 1338 1337 1337 1337 1337 1338 1338 1343 1354 1361 1368 1380 1385 1392 1399 1404 1414 1417 1421 1424 1431 1434 1439 1445 1457 1460 1464 1469 1465 1465 1466 1465 1472 1482 1485 1495 1477 1455 1463 1467 1471 1461 1457
1344 1340 1336 1334 1333 1331 1332 1331 1333 1333 1334 1340 1345 1354 1362 1372 1368 1381 1393 1400 1409 1415 1420 1421 1425 1431 1436 1440 1450 1453 1455 1458 1457 1455 1458 1462 1463 1469 1483 1493 1490 1455 1444 1447 1453 1445 1445
1340 1335 1332 1329 1327 1326 1326 1327 1326 1328 1331 1335 1338 1347 1356 1363 1369 1376 1385 1390 1401 1408 1416 1422 1424 1429 1431 1437 1444 1447 1448 1438 1445 1451 1457 1461 1465 1460 1463 1464 1460 1445 1441 1447 1468 1448 1444
1336 1329 1327 1324 1322 1322 1323 1323 1323 1325 1326 1333 1334 1339 1347 1355 1366 1372 1378 1386 1395 1401 1408 1413 1424 1423 1429 1436 1437 1441 1446 1438 1439 1437 1443 1445 1452 1454 1455 1458 1453 1443 1442 1443 1449 1448 1448
1336 1328 1324 1319 1319 1320 1322 1322 1322 1322 1325 1325 1329 1337 1343 1352 1362 1365 1372 1378 1385 1391 1398 1402 1401 1406 1413 1423 1425 1425 1429 1436 1420 1427 1428 1433 1426 1442 1440 1435 1446 1447 1450 1452 1449 1448 1451